Home   Weather   Naha   Past weeks
Flag for Japan

Past Weather in Naha, Okinawa, Japan — Yesterday and Last 2 Weeks

Now
82 °F

Partly sunny.


Feels Like: 83 °F
Forecast: 80 / 72 °F
Wind: 9 mph from East

Location: Naha Airport

Current Time: May 25, 2019 at 2:25:10 pm

Latest Report: May 25, 2019 at 1:30 pm


Visibility: N/A

Pressure: 29.98 "Hg

Humidity: 51%

Dew Point: 63 °F

Location of NahaLocation

Past Weather in Naha — Graph

°F

Naha Temperature Yesterday

Maximum temperature yesterday: 84 °F (at 3:00 pm)
Minimum temperature yesterday: 70 °F (at 5:30 am)
Average temperature yesterday: 77 °F

High & Low Weather Summary for the Past Weeks

 TemperatureHumidityPressure
High86 °F (May 18, 1:30 pm)94% (May 10, 1:00 pm)30.01 "Hg (May 10, 1:00 pm)
Low70 °F (May 22, 4:00 am)26% (May 24, 5:00 pm)29.62 "Hg (May 18, 3:10 am)
Average77 °F75%29.80 "Hg
* Reported May 10 1:00 pm — May 25 1:00 pm, Naha. Weather by CustomWeather, © 2019

Note: Actual official high and low records may vary slightly from our data, if they occured in-between our weather recording intervals... More about our weather records

Advertising

Naha Weather History for the Previous 24 Hours

Scroll right to see more
 ConditionsComfort  
Time TempWeatherWind HumidityBarometerVisibility
1:00 pm
Sat, May 25
82 °FPartly sunny.13 mph51%29.98 "HgN/A
12:30 pm81 °FPartly sunny.9 mph54%30.01 "HgN/A
12:00 pm81 °FPartly sunny.10 mph51%30.01 "HgN/A
11:30 am81 °FPartly sunny.9 mph54%30.01 "HgN/A
11:00 am81 °FPassing clouds.12 mph54%29.98 "HgN/A
10:30 am81 °FPartly sunny.10 mph51%30.01 "HgN/A
9:30 am79 °FPartly sunny.9 mph54%30.01 "HgN/A
9:00 am79 °FScattered clouds.8 mph54%30.01 "HgN/A
8:30 am79 °FScattered clouds.8 mph54%30.01 "HgN/A
8:00 am77 °FScattered clouds.7 mph61%30.01 "HgN/A
7:30 am75 °FPassing clouds.5 mph65%29.98 "HgN/A
7:00 am75 °FPassing clouds.5 mph65%29.98 "HgN/A
6:30 am73 °FScattered clouds.3 mph65%29.98 "HgN/A
6:00 am73 °FScattered clouds.3 mph65%29.98 "HgN/A
5:30 am73 °FPassing clouds.1 mph65%29.98 "HgN/A
5:00 am73 °FPassing clouds.3 mph65%29.98 "HgN/A
4:30 am73 °FPassing clouds.3 mph65%29.95 "HgN/A
4:00 am73 °FPassing clouds.5 mph65%29.98 "HgN/A
3:30 am73 °FPassing clouds.3 mph65%29.95 "HgN/A
3:00 am73 °FPassing clouds.3 mph65%29.98 "HgN/A
2:30 am73 °FPassing clouds.3 mph61%29.98 "HgN/A
2:00 am75 °FPassing clouds.5 mph57%29.98 "HgN/A
1:30 am75 °FPassing clouds.3 mph57%29.98 "HgN/A
1:00 am75 °FPassing clouds.5 mph54%29.98 "HgN/A
12:30 am75 °FPassing clouds.3 mph54%29.98 "HgN/A
12:00 am75 °FPassing clouds.5 mph54%29.98 "HgN/A
11:30 pm
Fri, May 24
75 °FPassing clouds.5 mph54%30.01 "HgN/A
11:00 pm75 °FPassing clouds.5 mph54%30.01 "HgN/A
10:30 pm77 °FPassing clouds.6 mph47%30.01 "HgN/A
10:00 pm77 °FPassing clouds.7 mph47%30.01 "HgN/A
9:30 pm77 °FPassing clouds.7 mph51%30.01 "HgN/A
9:00 pm77 °FPassing clouds.8 mph51%29.98 "HgN/A
8:30 pm77 °FPassing clouds.8 mph54%29.98 "HgN/A
8:00 pm77 °FPassing clouds.8 mph54%29.98 "HgN/A
7:30 pm77 °FPassing clouds.8 mph54%29.95 "HgN/A
7:00 pm77 °FSunny.9 mph51%29.95 "Hg10 mi
6:30 pm79 °FPassing clouds.7 mph45%29.95 "HgN/A
6:00 pm79 °FSunny.10 mph45%29.95 "Hg10 mi
5:30 pm81 °FPassing clouds.9 mph34%29.95 "HgN/A
5:00 pm82 °FPassing clouds.9 mph26%29.95 "HgN/A
4:30 pm82 °FPassing clouds.9 mph28%29.95 "HgN/A
4:00 pm82 °FSunny.8 mph32%29.95 "Hg10 mi
3:30 pm82 °FPassing clouds.10 mph30%29.95 "HgN/A
3:00 pm84 °FPassing clouds.7 mph27%29.95 "HgN/A
2:30 pm82 °FPassing clouds.8 mph35%29.95 "HgN/A
2:00 pm82 °FPassing clouds.7 mph48%29.98 "HgN/A
Weather by CustomWeather, © 2019

See weather overview